Time,TemperatureF,DewpointF,PressureIn,WindDirection,WindDirectionDegrees,WindSpeedMPH,WindSpeedGustMPH,Humidity,HourlyPrecipIn,Conditions,Clouds,dailyrainin,SoftwareType,DateUTC
2013-03-04 00:03:00,27.9,11.7,29.64,SW,233,3.0,0.0,50,0.00,,,0.00,WeatherTracker,2013-03-04 05:03:00,
2013-03-04 00:08:00,27.9,12.6,29.64,NW,323,0.0,0.0,52,0.00,,,0.00,WeatherTracker,2013-03-04 05:08:00,
2013-03-04 00:13:00,27.9,12.1,29.64,North,3,0.0,0.0,51,0.00,,,0.00,WeatherTracker,2013-03-04 05:13:00,
2013-03-04 00:19:00,27.9,11.7,29.64,WSW,241,0.0,0.0,50,0.00,,,0.00,WeatherTracker,2013-03-04 05:19:00,
2013-03-04 00:29:00,27.9,12.1,29.64,South,185,0.0,0.0,51,0.00,,,0.00,WeatherTracker,2013-03-04 05:29:00,
2013-03-04 00:38:00,27.9,11.7,29.64,West,272,0.0,0.0,50,0.00,,,0.00,WeatherTracker,2013-03-04 05:38:00,
2013-03-04 00:44:00,27.9,12.1,29.64,WSW,254,0.0,0.0,51,0.00,,,0.00,WeatherTracker,2013-03-04 05:44:00,
2013-03-04 00:53:00,27.9,11.7,29.64,North,356,6.0,0.0,50,0.00,,,0.00,WeatherTracker,2013-03-04 05:53:00,
2013-03-04 00:58:00,27.9,12.1,29.64,NNW,328,3.0,0.0,51,0.00,,,0.00,WeatherTracker,2013-03-04 05:58:00,
2013-03-04 01:03:00,27.9,12.1,29.64,West,268,3.0,0.0,51,0.00,,,0.00,WeatherTracker,2013-03-04 06:03:00,
2013-03-04 01:08:00,27.9,12.1,29.64,WSW,257,1.0,0.0,51,0.00,,,0.00,WeatherTracker,2013-03-04 06:08:00,
2013-03-04 01:14:00,27.9,12.1,29.64,SSW,199,1.0,0.0,51,0.00,,,0.00,WeatherTracker,2013-03-04 06:14:00,
2013-03-04 01:19:00,27.9,11.7,29.64,WSW,258,3.0,0.0,50,0.00,,,0.00,WeatherTracker,2013-03-04 06:19:00,
2013-03-04 01:24:00,28.1,12.3,29.64,WNW,288,1.0,0.0,51,0.00,,,0.00,WeatherTracker,2013-03-04 06:24:00,
2013-03-04 01:33:00,28.1,12.8,29.64,NW,316,0.0,0.0,52,0.00,,,0.00,WeatherTracker,2013-03-04 06:33:00,
2013-03-04 01:38:00,28.1,13.6,29.64,NW,316,0.0,0.0,54,0.00,,,0.00,WeatherTracker,2013-03-04 06:38:00,
2013-03-04 01:43:00,28.1,12.8,29.64,West,261,0.0,0.0,52,0.00,,,0.00,WeatherTracker,2013-03-04 06:43:00,
2013-03-04 01:49:00,28.1,13.2,29.64,West,261,0.0,0.0,53,0.00,,,0.00,WeatherTracker,2013-03-04 06:49:00,
2013-03-04 01:58:00,28.1,12.8,29.64,WSW,248,2.0,0.0,52,0.00,,,0.00,WeatherTracker,2013-03-04 06:58:00,
2013-03-04 02:03:00,28.2,13.7,29.64,WSW,248,1.0,0.0,54,0.00,,,0.00,WeatherTracker,2013-03-04 07:03:00,
2013-03-04 02:13:00,28.2,13.3,29.64,WSW,253,2.0,0.0,53,0.00,,,0.00,WeatherTracker,2013-03-04 07:13:00,
2013-03-04 02:19:00,28.2,13.3,29.64,North,6,0.0,0.0,53,0.00,,,0.00,WeatherTracker,2013-03-04 07:19:00,
2013-03-04 02:29:00,28.2,13.3,29.64,SW,229,0.0,0.0,53,0.00,,,0.00,WeatherTracker,2013-03-04 07:29:00,
2013-03-04 02:38:00,28.2,14.1,29.64,SW,229,0.0,0.0,55,0.00,,,0.00,WeatherTracker,2013-03-04 07:38:00,
2013-03-04 02:43:00,28.2,13.7,29.64,West,275,1.0,0.0,54,0.00,,,0.00,WeatherTracker,2013-03-04 07:43:00,
2013-03-04 02:49:00,28.1,13.6,29.64,West,275,0.0,0.0,54,0.00,,,0.00,WeatherTracker,2013-03-04 07:49:00,
2013-03-04 02:58:00,28.1,13.6,29.64,WSW,243,2.0,0.0,54,0.00,,,0.00,WeatherTracker,2013-03-04 07:58:00,
2013-03-04 03:03:00,28.1,13.6,29.64,SW,230,2.0,0.0,54,0.00,,,0.00,WeatherTracker,2013-03-04 08:03:00,
2013-03-04 03:13:00,27.9,14.3,29.64,WSW,239,2.0,0.0,56,0.00,,,0.00,WeatherTracker,2013-03-04 08:13:00,
2013-03-04 03:18:00,27.9,13.4,29.64,NNW,347,1.0,0.0,54,0.00,,,0.00,WeatherTracker,2013-03-04 08:18:00,
2013-03-04 03:23:00,27.9,14.3,29.64,WNW,288,2.0,0.0,56,0.00,,,0.00,WeatherTracker,2013-03-04 08:23:00,
2013-03-04 03:33:00,27.8,14.6,29.64,WSW,239,5.0,0.0,57,0.00,,,0.00,WeatherTracker,2013-03-04 08:33:00,
2013-03-04 03:43:00,27.8,14.2,29.64,West,260,0.0,0.0,56,0.00,,,0.00,WeatherTracker,2013-03-04 08:43:00,
2013-03-04 03:53:00,27.6,14.4,29.65,NW,322,0.0,0.0,57,0.00,,,0.00,WeatherTracker,2013-03-04 08:53:00,
2013-03-04 03:58:00,27.6,14.4,29.65,NW,323,0.0,0.0,57,0.00,,,0.00,WeatherTracker,2013-03-04 08:58:00,
2013-03-04 04:03:00,27.6,14.8,29.65,North,11,0.0,0.0,58,0.00,,,0.00,WeatherTracker,2013-03-04 09:03:00,
2013-03-04 04:13:00,27.5,14.7,29.65,North,354,0.0,0.0,58,0.00,,,0.00,WeatherTracker,2013-03-04 09:13:00,
2013-03-04 04:18:00,27.3,14.5,29.65,North,354,0.0,0.0,58,0.00,,,0.00,WeatherTracker,2013-03-04 09:18:00,
2013-03-04 04:28:00,27.2,15.9,29.65,West,271,0.0,0.0,62,0.00,,,0.00,WeatherTracker,2013-03-04 09:28:00,
2013-03-04 04:33:00,27.3,14.9,29.65,West,272,0.0,0.0,59,0.00,,,0.00,WeatherTracker,2013-03-04 09:33:00,
2013-03-04 04:43:00,27.6,15.2,29.65,West,272,0.0,0.0,59,0.00,,,0.00,WeatherTracker,2013-03-04 09:43:00,
2013-03-04 04:49:00,27.6,15.2,29.66,West,272,0.0,0.0,59,0.00,,,0.00,WeatherTracker,2013-03-04 09:49:00,
2013-03-04 04:58:00,27.8,15.7,29.66,SE,143,1.0,0.0,60,0.00,,,0.00,WeatherTracker,2013-03-04 09:58:00,
2013-03-04 05:08:00,27.9,15.1,29.66,SW,230,0.0,0.0,58,0.00,,,0.00,WeatherTracker,2013-03-04 10:08:00,
2013-03-04 05:18:00,27.9,15.1,29.66,SW,230,0.0,0.0,58,0.00,,,0.00,WeatherTracker,2013-03-04 10:18:00,
2013-03-04 05:28:00,28.2,15.3,29.66,NNW,330,0.0,0.0,58,0.00,,,0.00,WeatherTracker,2013-03-04 10:28:00,
2013-03-04 05:33:00,28.2,15.3,29.66,West,272,0.0,0.0,58,0.00,,,0.00,WeatherTracker,2013-03-04 10:33:00,
2013-03-04 05:43:00,28.2,15.7,29.66,NNW,333,3.0,0.0,59,0.00,,,0.00,WeatherTracker,2013-03-04 10:43:00,
2013-03-04 05:48:00,28.2,15.3,29.66,NNW,328,0.0,0.0,58,0.00,,,0.00,WeatherTracker,2013-03-04 10:48:00,
2013-03-04 05:53:00,28.2,15.7,29.66,West,268,2.0,0.0,59,0.00,,,0.00,WeatherTracker,2013-03-04 10:53:00,
2013-03-04 05:58:00,28.2,15.3,29.66,WNW,284,0.0,0.0,58,0.00,,,0.00,WeatherTracker,2013-03-04 10:58:00,
2013-03-04 06:03:00,28.2,15.7,29.66,WNW,287,0.0,0.0,59,0.00,,,0.00,WeatherTracker,2013-03-04 11:03:00,
2013-03-04 06:13:00,28.4,15.9,29.66,North,8,0.0,0.0,59,0.00,,,0.00,WeatherTracker,2013-03-04 11:13:00,
2013-03-04 06:18:00,28.4,15.9,29.66,WSW,237,0.0,0.0,59,0.00,,,0.00,WeatherTracker,2013-03-04 11:18:00,
2013-03-04 06:28:00,28.4,15.9,29.66,WNW,295,0.0,0.0,59,0.00,,,0.00,WeatherTracker,2013-03-04 11:28:00,
2013-03-04 06:33:00,28.4,16.3,29.66,WSW,243,0.0,0.0,60,0.00,,,0.00,WeatherTracker,2013-03-04 11:33:00,
2013-03-04 06:38:00,28.5,15.6,29.66,SW,224,1.0,0.0,58,0.00,,,0.00,WeatherTracker,2013-03-04 11:38:00,
2013-03-04 06:43:00,28.5,14.8,29.66,NW,313,1.0,0.0,56,0.00,,,0.00,WeatherTracker,2013-03-04 11:43:00,
2013-03-04 06:48:00,28.7,15.0,29.66,North,352,2.0,0.0,56,0.00,,,0.00,WeatherTracker,2013-03-04 11:48:00,
2013-03-04 06:53:00,28.8,15.1,29.66,WSW,240,0.0,0.0,56,0.00,,,0.00,WeatherTracker,2013-03-04 11:53:00,
2013-03-04 06:58:00,29.0,14.5,29.66,WSW,240,6.0,0.0,54,0.00,,,0.00,WeatherTracker,2013-03-04 11:58:00,
2013-03-04 07:08:00,29.3,15.6,29.67,North,356,0.0,0.0,56,0.00,,,0.00,WeatherTracker,2013-03-04 12:08:00,
2013-03-04 07:18:00,29.7,14.3,29.67,NNW,347,11.0,0.0,52,0.00,,,0.00,WeatherTracker,2013-03-04 12:18:00,
2013-03-04 07:23:00,29.8,14.3,29.67,WSW,250,4.0,0.0,52,0.00,,,0.00,WeatherTracker,2013-03-04 12:23:00,
2013-03-04 07:33:00,30.1,14.6,29.67,West,275,5.0,0.0,52,0.00,,,0.00,WeatherTracker,2013-03-04 12:33:00,
2013-03-04 07:43:00,30.1,14.6,29.67,WSW,237,5.0,0.0,52,0.00,,,0.00,WeatherTracker,2013-03-04 12:43:00,
2013-03-04 07:48:00,30.1,14.6,29.67,WSW,239,1.0,0.0,52,0.00,,,0.00,WeatherTracker,2013-03-04 12:48:00,
2013-03-04 07:53:00,30.1,14.6,29.67,WSW,243,2.0,0.0,52,0.00,,,0.00,WeatherTracker,2013-03-04 12:53:00,
2013-03-04 07:58:00,30.1,15.1,29.67,SW,223,2.0,0.0,53,0.00,,,0.00,WeatherTracker,2013-03-04 12:58:00,
2013-03-04 08:08:00,30.3,14.4,29.67,SW,230,2.0,0.0,51,0.00,,,0.00,WeatherTracker,2013-03-04 13:08:00,
2013-03-04 08:13:00,30.9,14.5,29.67,WSW,243,2.0,0.0,50,0.00,,,0.00,WeatherTracker,2013-03-04 13:13:00,
2013-03-04 08:18:00,31.0,14.1,29.67,WSW,239,2.0,0.0,49,0.00,,,0.00,WeatherTracker,2013-03-04 13:18:00,
2013-03-04 08:28:00,31.5,14.6,29.67,WSW,241,4.0,0.0,49,0.00,,,0.00,WeatherTracker,2013-03-04 13:28:00,
2013-03-04 08:33:00,31.5,15.0,29.66,SSW,208,1.0,0.0,50,0.00,,,0.00,WeatherTracker,2013-03-04 13:33:00,
2013-03-04 08:43:00,31.6,14.2,29.66,WSW,248,6.0,0.0,48,0.00,,,0.00,WeatherTracker,2013-03-04 13:43:00,
2013-03-04 08:53:00,31.9,13.5,29.66,WNW,291,2.0,0.0,46,0.00,,,0.00,WeatherTracker,2013-03-04 13:53:00,
2013-03-04 09:03:00,31.9,14.5,29.66,WSW,250,5.0,0.0,48,0.00,,,0.00,WeatherTracker,2013-03-04 14:03:00,
2013-03-04 09:08:00,31.8,13.9,29.66,NNW,330,4.0,0.0,47,0.00,,,0.00,WeatherTracker,2013-03-04 14:08:00,
2013-03-04 09:18:00,31.6,14.7,29.66,WSW,257,6.0,0.0,49,0.00,,,0.00,WeatherTracker,2013-03-04 14:18:00,
2013-03-04 09:23:00,31.9,14.9,29.66,West,272,5.0,0.0,49,0.00,,,0.00,WeatherTracker,2013-03-04 14:23:00,
2013-03-04 09:28:00,32.1,14.6,29.66,WSW,239,5.0,0.0,48,0.00,,,0.00,WeatherTracker,2013-03-04 14:28:00,
2013-03-04 09:33:00,32.7,15.7,29.66,SW,223,2.0,0.0,49,0.00,,,0.00,WeatherTracker,2013-03-04 14:33:00,
2013-03-04 09:43:00,32.5,13.5,29.66,WNW,292,1.0,0.0,45,0.00,,,0.00,WeatherTracker,2013-03-04 14:43:00,
2013-03-04 09:48:00,32.2,14.3,29.66,SW,220,0.0,0.0,47,0.00,,,0.00,WeatherTracker,2013-03-04 14:48:00,
2013-03-04 09:58:00,32.9,15.4,29.66,SW,222,0.0,0.0,48,0.00,,,0.00,WeatherTracker,2013-03-04 14:58:00,
2013-03-04 10:03:00,33.8,15.7,29.66,SW,229,4.0,0.0,47,0.00,,,0.00,WeatherTracker,2013-03-04 15:03:00,
2013-03-04 10:09:00,33.2,14.2,29.66,WSW,247,2.0,0.0,45,0.00,,,0.00,WeatherTracker,2013-03-04 15:09:00,
2013-03-04 10:18:00,34.6,15.5,29.67,NNW,328,0.0,0.0,45,0.00,,,0.00,WeatherTracker,2013-03-04 15:18:00,
2013-03-04 10:23:00,35.2,15.0,29.67,NNW,329,4.0,0.0,43,0.00,,,0.00,WeatherTracker,2013-03-04 15:23:00,
2013-03-04 10:33:00,35.8,14.4,29.66,WSW,250,2.0,0.0,41,0.00,,,0.00,WeatherTracker,2013-03-04 15:33:00,
2013-03-04 10:43:00,36.0,14.0,29.66,NW,326,2.0,0.0,40,0.00,,,0.00,WeatherTracker,2013-03-04 15:43:00,
2013-03-04 10:48:00,36.3,15.4,29.67,SW,230,8.0,0.0,42,0.00,,,0.00,WeatherTracker,2013-03-04 15:48:00,
2013-03-04 10:58:00,36.2,15.3,29.67,SSW,212,2.0,0.0,42,0.00,,,0.00,WeatherTracker,2013-03-04 15:58:00,
2013-03-04 11:03:00,36.5,15.1,29.66,SE,143,1.0,0.0,41,0.00,,,0.00,WeatherTracker,2013-03-04 16:03:00,
2013-03-04 11:13:00,35.3,14.5,29.66,WNW,294,5.0,0.0,42,0.00,,,0.00,WeatherTracker,2013-03-04 16:13:00,
2013-03-04 11:18:00,34.4,14.2,29.66,WSW,253,3.0,0.0,43,0.00,,,0.00,WeatherTracker,2013-03-04 16:18:00,
2013-03-04 11:28:00,33.8,13.2,29.66,SSW,209,1.0,0.0,42,0.00,,,0.00,WeatherTracker,2013-03-04 16:28:00,
2013-03-04 11:33:00,33.8,13.7,29.66,SW,232,3.0,0.0,43,0.00,,,0.00,WeatherTracker,2013-03-04 16:33:00,
2013-03-04 11:43:00,34.1,14.0,29.66,South,186,5.0,0.0,43,0.00,,,0.00,WeatherTracker,2013-03-04 16:43:00,
2013-03-04 11:48:00,34.1,13.4,29.65,SSW,206,7.0,0.0,42,0.00,,,0.00,WeatherTracker,2013-03-04 16:48:00,
2013-03-04 11:58:00,35.0,14.3,29.65,WNW,285,2.0,0.0,42,0.00,,,0.00,WeatherTracker,2013-03-04 16:58:00,
2013-03-04 12:03:00,35.3,14.0,29.64,WSW,251,7.0,0.0,41,0.00,,,0.00,WeatherTracker,2013-03-04 17:03:00,
2013-03-04 12:13:00,35.5,14.7,29.64,North,357,3.0,0.0,42,0.00,,,0.00,WeatherTracker,2013-03-04 17:13:00,
2013-03-04 12:23:00,37.5,16.0,29.64,North,354,1.0,0.0,41,0.00,,,0.00,WeatherTracker,2013-03-04 17:23:00,
2013-03-04 12:28:00,38.8,16.0,29.64,SW,224,3.0,0.0,39,0.00,,,0.00,WeatherTracker,2013-03-04 17:28:00,
2013-03-04 12:38:00,38.9,16.1,29.64,WSW,250,12.0,0.0,39,0.00,,,0.00,WeatherTracker,2013-03-04 17:38:00,
2013-03-04 12:43:00,39.1,13.8,29.64,WSW,246,7.0,0.0,35,0.00,,,0.00,WeatherTracker,2013-03-04 17:43:00,
2013-03-04 12:48:00,38.0,14.7,29.64,NNE,28,6.0,0.0,38,0.00,,,0.00,WeatherTracker,2013-03-04 17:48:00,
2013-03-04 12:53:00,38.2,15.4,29.64,WSW,243,6.0,0.0,39,0.00,,,0.00,WeatherTracker,2013-03-04 17:53:00,
2013-03-04 12:58:00,39.1,15.7,29.64,West,280,1.0,0.0,38,0.00,,,0.00,WeatherTracker,2013-03-04 17:58:00,
2013-03-04 13:08:00,39.6,14.9,29.63,NW,309,1.0,0.0,36,0.00,,,0.00,WeatherTracker,2013-03-04 18:08:00,
2013-03-04 13:18:00,39.6,14.9,29.64,WSW,250,3.0,0.0,36,0.00,,,0.00,WeatherTracker,2013-03-04 18:18:00,
2013-03-04 13:23:00,39.1,15.1,29.64,WSW,258,2.0,0.0,37,0.00,,,0.00,WeatherTracker,2013-03-04 18:23:00,
2013-03-04 13:28:00,39.1,15.1,29.64,North,10,3.0,0.0,37,0.00,,,0.00,WeatherTracker,2013-03-04 18:28:00,
2013-03-04 13:33:00,39.2,14.5,29.64,SW,234,2.0,0.0,36,0.00,,,0.00,WeatherTracker,2013-03-04 18:33:00,
2013-03-04 13:43:00,38.0,14.1,29.64,West,278,4.0,0.0,37,0.00,,,0.00,WeatherTracker,2013-03-04 18:43:00,
2013-03-04 13:53:00,37.6,14.9,29.64,NNW,340,3.0,0.0,39,0.00,,,0.00,WeatherTracker,2013-03-04 18:53:00,
2013-03-04 13:58:00,37.5,15.4,29.64,NE,52,7.0,0.0,40,0.00,,,0.00,WeatherTracker,2013-03-04 18:58:00,
2013-03-04 14:03:00,37.6,14.9,29.64,South,191,2.0,0.0,39,0.00,,,0.00,WeatherTracker,2013-03-04 19:03:00,
2013-03-04 14:08:00,38.0,15.3,29.64,WSW,240,2.0,0.0,39,0.00,,,0.00,WeatherTracker,2013-03-04 19:08:00,
2013-03-04 14:13:00,37.9,15.2,29.64,West,278,3.0,0.0,39,0.00,,,0.00,WeatherTracker,2013-03-04 19:13:00,
2013-03-04 14:23:00,39.1,14.4,29.63,WSW,244,2.0,0.0,36,0.00,,,0.00,WeatherTracker,2013-03-04 19:23:00,
2013-03-04 14:28:00,39.2,15.1,29.63,WSW,239,5.0,0.0,37,0.00,,,0.00,WeatherTracker,2013-03-04 19:28:00,
2013-03-04 14:38:00,39.3,15.8,29.64,SSW,196,1.0,0.0,38,0.00,,,0.00,WeatherTracker,2013-03-04 19:38:00,
2013-03-04 14:48:00,39.5,14.8,29.65,NNE,13,8.0,0.0,36,0.00,,,0.00,WeatherTracker,2013-03-04 19:48:00,
2013-03-04 14:53:00,39.6,14.9,29.65,SW,224,2.0,0.0,36,0.00,,,0.00,WeatherTracker,2013-03-04 19:53:00,
2013-03-04 14:58:00,39.8,16.3,29.65,SW,220,4.0,0.0,38,0.00,,,0.00,WeatherTracker,2013-03-04 19:58:00,
2013-03-04 15:03:00,39.6,14.9,29.65,WSW,237,1.0,0.0,36,0.00,,,0.00,WeatherTracker,2013-03-04 20:03:00,
2013-03-04 15:08:00,40.1,16.6,29.65,East,82,2.0,0.0,38,0.00,,,0.00,WeatherTracker,2013-03-04 20:08:00,
2013-03-04 15:13:00,40.1,15.3,29.65,SW,230,4.0,0.0,36,0.00,,,0.00,WeatherTracker,2013-03-04 20:13:00,
2013-03-04 15:18:00,39.5,14.8,29.65,SW,226,1.0,0.0,36,0.00,,,0.00,WeatherTracker,2013-03-04 20:18:00,
2013-03-04 15:28:00,39.3,16.4,29.65,SW,230,5.0,0.0,39,0.00,,,0.00,WeatherTracker,2013-03-04 20:28:00,
2013-03-04 15:33:00,39.3,15.2,29.66,East,83,2.0,0.0,37,0.00,,,0.00,WeatherTracker,2013-03-04 20:33:00,
2013-03-04 15:43:00,37.5,15.4,29.66,WSW,247,4.0,0.0,40,0.00,,,0.00,WeatherTracker,2013-03-04 20:43:00,
2013-03-04 15:48:00,37.0,14.9,29.66,WSW,248,8.0,0.0,40,0.00,,,0.00,WeatherTracker,2013-03-04 20:48:00,
2013-03-04 15:58:00,37.0,14.9,29.66,North,1,2.0,0.0,40,0.00,,,0.00,WeatherTracker,2013-03-04 20:58:00,
2013-03-04 16:08:00,37.2,15.1,29.66,North,356,2.0,0.0,40,0.00,,,0.00,WeatherTracker,2013-03-04 21:08:00,
2013-03-04 16:13:00,37.5,16.0,29.66,NW,318,0.0,0.0,41,0.00,,,0.00,WeatherTracker,2013-03-04 21:13:00,
2013-03-04 16:23:00,36.6,14.6,29.67,North,-999,2.0,0.0,40,0.00,,,0.00,WeatherTracker,2013-03-04 21:23:00,
2013-03-04 16:29:00,36.5,15.6,29.67,West,260,2.0,0.0,42,0.00,,,0.00,WeatherTracker,2013-03-04 21:29:00,
2013-03-04 16:38:00,36.0,15.2,29.67,West,280,1.0,0.0,42,0.00,,,0.00,WeatherTracker,2013-03-04 21:38:00,
2013-03-04 16:43:00,36.0,14.6,29.67,North,352,6.0,0.0,41,0.00,,,0.00,WeatherTracker,2013-03-04 21:43:00,
2013-03-04 16:53:00,35.6,15.9,29.67,WSW,244,2.0,0.0,44,0.00,,,0.00,WeatherTracker,2013-03-04 21:53:00,
2013-03-04 17:03:00,35.0,15.3,29.68,WSW,241,4.0,0.0,44,0.00,,,0.00,WeatherTracker,2013-03-04 22:03:00,
2013-03-04 17:13:00,34.3,15.2,29.68,WSW,254,1.0,0.0,45,0.00,,,0.00,WeatherTracker,2013-03-04 22:13:00,
2013-03-04 17:18:00,34.0,15.4,29.69,SW,230,0.0,0.0,46,0.00,,,0.00,WeatherTracker,2013-03-04 22:18:00,
2013-03-04 17:28:00,33.4,14.4,29.69,WSW,257,1.0,0.0,45,0.00,,,0.00,WeatherTracker,2013-03-04 22:28:00,
2013-03-04 17:38:00,33.2,14.2,29.70,WSW,251,2.0,0.0,45,0.00,,,0.00,WeatherTracker,2013-03-04 22:38:00,
2013-03-04 17:43:00,33.1,14.6,29.70,WNW,296,0.0,0.0,46,0.00,,,0.00,WeatherTracker,2013-03-04 22:43:00,
2013-03-04 17:48:00,32.9,14.4,29.70,SSW,200,1.0,0.0,46,0.00,,,0.00,WeatherTracker,2013-03-04 22:48:00,
2013-03-04 17:53:00,32.8,14.3,29.70,SW,217,0.0,0.0,46,0.00,,,0.00,WeatherTracker,2013-03-04 22:53:00,
2013-03-04 18:03:00,32.4,14.4,29.70,SW,232,5.0,0.0,47,0.00,,,0.00,WeatherTracker,2013-03-04 23:03:00,
2013-03-04 18:13:00,32.2,15.2,29.70,WSW,246,1.0,0.0,49,0.00,,,0.00,WeatherTracker,2013-03-04 23:13:00,
2013-03-04 18:18:00,32.1,15.1,29.71,West,277,0.0,0.0,49,0.00,,,0.00,WeatherTracker,2013-03-04 23:18:00,
2013-03-04 18:23:00,31.9,14.5,29.71,North,356,0.0,0.0,48,0.00,,,0.00,WeatherTracker,2013-03-04 23:23:00,
2013-03-04 18:28:00,31.9,13.5,29.71,WSW,248,1.0,0.0,46,0.00,,,0.00,WeatherTracker,2013-03-04 23:28:00,
2013-03-04 18:38:00,31.8,13.9,29.71,WSW,246,3.0,0.0,47,0.00,,,0.00,WeatherTracker,2013-03-04 23:38:00,
2013-03-04 18:43:00,31.8,13.9,29.71,WSW,241,6.0,0.0,47,0.00,,,0.00,WeatherTracker,2013-03-04 23:43:00,
2013-03-04 18:48:00,31.6,14.7,29.72,NNW,337,7.0,0.0,49,0.00,,,0.00,WeatherTracker,2013-03-04 23:48:00,
2013-03-04 18:53:00,31.6,14.7,29.72,NNW,347,3.0,0.0,49,0.00,,,0.00,WeatherTracker,2013-03-04 23:53:00,
2013-03-04 18:58:00,31.6,15.1,29.72,WSW,240,0.0,0.0,50,0.00,,,0.00,WeatherTracker,2013-03-04 23:58:00,
2013-03-04 19:08:00,31.6,13.7,29.72,North,359,2.0,0.0,47,0.00,,,0.00,WeatherTracker,2013-03-05 00:08:00,
2013-03-04 19:13:00,31.8,15.3,29.72,WSW,257,2.0,0.0,50,0.00,,,0.00,WeatherTracker,2013-03-05 00:13:00,
2013-03-04 19:18:00,31.8,14.8,29.73,NNW,340,1.0,0.0,49,0.00,,,0.00,WeatherTracker,2013-03-05 00:18:00,
2013-03-04 19:23:00,31.6,15.1,29.73,WSW,248,1.0,0.0,50,0.00,,,0.00,WeatherTracker,2013-03-05 00:23:00,
2013-03-04 19:28:00,31.6,14.7,29.73,SW,232,6.0,0.0,49,0.00,,,0.00,WeatherTracker,2013-03-05 00:28:00,
2013-03-04 19:38:00,31.6,14.7,29.73,SW,227,2.0,0.0,49,0.00,,,0.00,WeatherTracker,2013-03-05 00:38:00,
2013-03-04 19:43:00,31.6,14.7,29.73,SW,236,1.0,0.0,49,0.00,,,0.00,WeatherTracker,2013-03-05 00:43:00,
2013-03-04 19:53:00,31.8,15.3,29.74,WSW,251,0.0,0.0,50,0.00,,,0.00,WeatherTracker,2013-03-05 00:53:00,
2013-03-04 20:03:00,31.8,15.3,29.74,West,261,1.0,0.0,50,0.00,,,0.00,WeatherTracker,2013-03-05 01:03:00,
2013-03-04 20:08:00,31.8,14.8,29.74,West,260,0.0,0.0,49,0.00,,,0.00,WeatherTracker,2013-03-05 01:08:00,
2013-03-04 20:18:00,31.8,14.8,29.75,SW,232,1.0,0.0,49,0.00,,,0.00,WeatherTracker,2013-03-05 01:18:00,
2013-03-04 20:23:00,31.8,15.3,29.75,WNW,287,2.0,0.0,50,0.00,,,0.00,WeatherTracker,2013-03-05 01:23:00,
2013-03-04 20:33:00,31.8,15.3,29.76,WSW,243,0.0,0.0,50,0.00,,,0.00,WeatherTracker,2013-03-05 01:33:00,
2013-03-04 20:38:00,31.8,14.4,29.76,West,263,0.0,0.0,48,0.00,,,0.00,WeatherTracker,2013-03-05 01:38:00,
2013-03-04 20:43:00,31.8,15.3,29.76,NNW,328,3.0,0.0,50,0.00,,,0.00,WeatherTracker,2013-03-05 01:43:00,
2013-03-04 20:53:00,31.8,15.3,29.76,North,11,0.0,0.0,50,0.00,,,0.00,WeatherTracker,2013-03-05 01:53:00,
2013-03-04 20:58:00,31.8,15.8,29.76,WSW,240,0.0,0.0,51,0.00,,,0.00,WeatherTracker,2013-03-05 01:58:00,
2013-03-04 21:03:00,31.8,15.3,29.77,WSW,257,0.0,0.0,50,0.00,,,0.00,WeatherTracker,2013-03-05 02:03:00,
2013-03-04 21:08:00,31.8,15.3,29.77,WSW,257,0.0,0.0,50,0.00,,,0.00,WeatherTracker,2013-03-05 02:08:00,
2013-03-04 21:18:00,31.9,15.9,29.77,West,267,0.0,0.0,51,0.00,,,0.00,WeatherTracker,2013-03-05 02:18:00,
2013-03-04 21:28:00,32.4,15.9,29.77,WSW,239,2.0,0.0,50,0.00,,,0.00,WeatherTracker,2013-03-05 02:28:00,
2013-03-04 21:33:00,32.4,15.9,29.77,North,-999,2.0,0.0,50,0.00,,,0.00,WeatherTracker,2013-03-05 02:33:00,
2013-03-04 21:43:00,32.4,15.9,29.77,NE,41,7.0,0.0,50,0.00,,,0.00,WeatherTracker,2013-03-05 02:43:00,
2013-03-04 21:48:00,32.5,16.0,29.78,NE,51,0.0,0.0,50,0.00,,,0.00,WeatherTracker,2013-03-05 02:48:00,
2013-03-04 21:53:00,32.4,15.9,29.78,WNW,296,0.0,0.0,50,0.00,,,0.00,WeatherTracker,2013-03-05 02:53:00,
2013-03-04 22:03:00,32.4,16.3,29.78,WNW,291,0.0,0.0,51,0.00,,,0.00,WeatherTracker,2013-03-05 03:03:00,
2013-03-04 22:13:00,32.2,16.1,29.78,WNW,287,3.0,0.0,51,0.00,,,0.00,WeatherTracker,2013-03-05 03:13:00,
2013-03-04 22:18:00,32.2,15.7,29.78,NNW,343,0.0,0.0,50,0.00,,,0.00,WeatherTracker,2013-03-05 03:18:00,
2013-03-04 22:28:00,32.2,16.1,29.78,North,356,2.0,0.0,51,0.00,,,0.00,WeatherTracker,2013-03-05 03:28:00,
2013-03-04 22:33:00,32.2,16.1,29.78,WNW,301,1.0,0.0,51,0.00,,,0.00,WeatherTracker,2013-03-05 03:33:00,
2013-03-04 22:43:00,32.2,16.6,29.78,WSW,243,0.0,0.0,52,0.00,,,0.00,WeatherTracker,2013-03-05 03:43:00,
2013-03-04 22:53:00,32.2,16.6,29.78,WSW,241,0.0,0.0,52,0.00,,,0.00,WeatherTracker,2013-03-05 03:53:00,
2013-03-04 22:58:00,32.1,16.5,29.78,WSW,241,0.0,0.0,52,0.00,,,0.00,WeatherTracker,2013-03-05 03:58:00,
2013-03-04 23:08:00,32.1,16.9,29.78,West,267,0.0,0.0,53,0.00,,,0.00,WeatherTracker,2013-03-05 04:08:00,
2013-03-04 23:13:00,31.9,16.7,29.78,WSW,244,1.0,0.0,53,0.00,,,0.00,WeatherTracker,2013-03-05 04:13:00,
2013-03-04 23:18:00,31.9,16.7,29.78,WSW,244,0.0,0.0,53,0.00,,,0.00,WeatherTracker,2013-03-05 04:18:00,
2013-03-04 23:28:00,31.8,16.6,29.78,WSW,237,1.0,0.0,53,0.00,,,0.00,WeatherTracker,2013-03-05 04:28:00,
2013-03-04 23:33:00,31.8,17.1,29.78,West,265,0.0,0.0,54,0.00,,,0.00,WeatherTracker,2013-03-05 04:33:00,
2013-03-04 23:38:00,31.6,16.9,29.78,WSW,241,4.0,0.0,54,0.00,,,0.00,WeatherTracker,2013-03-05 04:38:00,
2013-03-04 23:43:00,31.5,17.2,29.78,West,271,2.0,0.0,55,0.00,,,0.00,WeatherTracker,2013-03-05 04:43:00,
2013-03-04 23:53:00,31.3,17.4,29.78,North,352,1.0,0.0,56,0.00,,,0.00,WeatherTracker,2013-03-05 04:53:00,